Location: Newark
(63.1158°N, 8.1461°E)
Time: 19:38:57
(UTC+00:00)

Envisat - Pass Details

Date: 18 December 2019
Orbit: 764 x 766 km, 98.1° (Epoch: 24 January)

Event Time Altitude Azimuth Distance (km) Brightness Sun altitude
Rises 17:43:18 0° 185° (S) 3,229 6.4 -22.9°
Reaches altitude 10° 17:45:43 10° 192° (SSW) 2,307 5.7 -23.2°
Maximum altitude 17:50:32 42° 263° (W) 1,096 4.2 -23.7°
Drops below altitude 10° 17:55:23 10° 334° (NNW) 2,320 5.7 -24.3°
Sets 17:57:50 0° 342° (NNW) 3,251 6.4 -24.5°
